Regional Weather Roundup
Issued by NWS

Home | Current Version | Previous Version | Text Only | Print | Product List | Glossary On
Versions: 1 2 3 4 5 6 7 8 9 10 11 12 13 14 15 16 17 18 19 20 21 22 23 24 25 26 27 28 29 30 31 32 33 34 35 36 37 38 39 40 41 42 43 44 45 46 47 48 49 50
162
ASUS44 KLUB 231010
RWRTX
WEST TEXAS WEATHER ROUNDUP
NATIONAL WEATHER SERVICE LUBBOCK TX
400 AM CST THU FEB 23 2017

NOTE: "FAIR" INDICATES FEW OR NO CLOUDS BELOW 12,000 FEET WITH NO
SIGNIFICANT WEATHER AND/OR OBSTRUCTIONS TO VISIBILITY.

TXZ004-006>008-010-012-014-016-OKZ002-231100-
TEXAS PANHANDLE/OKLAHOMA PANHANDLE

CITY           SKY/WX    TMP DP  RH WIND       PRES   REMARKS
AMARILLO       PTCLDY    52  32  46 W6        29.67F
BORGER         CLOUDY    57  31  37 SW8       29.64F
CANADIAN       MOCLDY    50  33  52 CALM      29.62F
DALHART        CLEAR     43  32  65 W10       29.66F
DUMAS          PTCLDY    46  31  56 SW12      29.65F
GUYMON         PTCLDY    42  27  55 S8        29.60F
HEREFORD       CLOUDY    40  35  81 CALM      29.69F
PAMPA          PTCLDY    52  32  45 W10       29.65F
PERRYTON       PTCLDY    53  31  42 SW7       29.61F
$$

TXZ026-029-035-045-048-231100-
SOUTHERN PANHANDLE/SOUTH PLAINS/ROLLING PLAINS

CITY           SKY/WX    TMP DP  RH WIND       PRES   REMARKS
CHILDRESS      CLEAR     55  36  48 SW10      29.62F
SEMINOLE       CLEAR     46  30  52 CALM      29.73F
LUBBOCK        PTCLDY    48  30  49 W7        29.69F
PLAINVIEW      CLEAR     42  31  64 W9        29.68S
SNYDER         CLEAR     54  34  46 SW9       29.70F
$$

TXZ052-054-060>062-072-078-127-140-154-169-231100-
PERMIAN BASIN/CONCHO VALLEY/BIG COUNTRY/EDWARDS PLATEAU

CITY           SKY/WX    TMP DP  RH WIND       PRES   REMARKS
ABILENE        CLEAR     60  36  40 S7        29.66F
BIG SPRING     CLEAR     50  35  56 S6        29.73F
BROWNWOOD      CLEAR     45  41  87 CALM      29.69S
JUNCTION       CLEAR     44  41  89 W5        29.73S
MIDLAND        CLEAR     58  31  35 CALM      29.72F
ODESSA         CLEAR     57  28  33 SW3       29.73F
SAN ANGELO     CLEAR     47  39  74 S8        29.70F
SONORA         CLEAR     41  37  87 CALM      29.78S
SWEETWATER     CLEAR     62  34  35 SW12      29.70F
WINK           CLEAR     51  27  39 W5        29.71F
$$

TXZ055-058-074-075-080-082-231100-
FAR WEST/SOUTHWEST MOUNTAINS/TRANS PECOS

CITY           SKY/WX    TMP DP  RH WIND       PRES   REMARKS
ALPINE         CLEAR     59  20  22 SW9       29.89S
DRYDEN           N/A     58  35  42 NW7       29.71S
EL PASO        CLEAR     62  29  28 SW9       29.81S
FORT STOCKTON  CLEAR     54  24  31 W10       29.76R
GUADALUPE PASS CLEAR     58  24  27 W22       29.86F
MARFA          CLOUDY    38  20  48 N7        29.90F WCI  33
PECOS          CLEAR     47  24  39 SW5       29.73S
PRESIDIO       FAIR      59  20  21 N6        29.81S
$$

TXZ014-016-019-021>030-083-231100
TEXAS TECH WEST TEXAS MESONET/TEXAS PANHANDLE/NORTHERN SOUTH PLAINS

CITY           SKY/WX    TMP DP  RH WIND       PRES   REMARKS
ABERNATHY 5ENE   N/A     41  32  69 W10       29.69F
AMARILLO 9NNE    N/A     43  33  66 S3        29.66F
AMARILLO 7SSE    N/A     40  32  75 SW6       29.68F
AMHERST 1NE      N/A     52  30  42 SW12      29.69F
BOOTLEG 11WNW    N/A     45  32  61 SW9       29.71F
CANADIAN 6E      N/A     52  29  41 NW5       29.60F
CAPROCK CYN SP   N/A     54  31  41 W9        29.64F
CHILDRESS 2NNE   N/A     57  35  43 CALM      29.61F
CLARENDON 2WSW   N/A     46  34  62 NW6       29.64F
CLAUDE 12SW      N/A     54  31  41 W7        29.67F
DIMMITT 2NE      N/A     46  33  61 W3        29.69F
FLOYDADA 2NNE    N/A     42  29  61 W8        29.68F
FRIONA 2NE       N/A     38  34  82 S6        29.70F WCI  34
GOODLETT 3W      N/A     60  36  41 W14       29.59F
HART 3N          N/A     42  33  70 W6        29.69F
HEREFORD 2NW     N/A     40  32  74 W5        29.68F
MCLEAN 1E        N/A     52  30  43 NW10      29.62F
MEMPHIS 1NE      N/A     50  36  59 W1        29.61F
MULESHOE 2SSW    N/A     38  31  78 W5        29.70F WCI  34
OLTON 6S         N/A     39  31  74 NW8       29.69F WCI  33
PALO DURO SP     N/A     46  33  61 W10       29.67F
PAMPA 2E         N/A     54  31  41 W8        29.64F
PLAINVIEW 1S     N/A     44  32  62 W8        29.68F
SILVERTON 7ESE   N/A     42  30  63 W7        29.67F
TULIA 2ENE       N/A     43  35  71 W6        29.68F
TURKEY 2WSW      N/A     54  32  43 W9        29.63F
UMBARGER 3NNE    N/A     41  34  75 SW6       29.69F
$$

TXZ033>036-039>041-045>048-231100
TEXAS TECH WEST TEXAS MESONET/SOUTH PLAINS

CITY           SKY/WX    TMP DP  RH WIND       PRES   REMARKS
AIKEN 3WSW       N/A     40  31  68 SW7       29.70S
ANDREWS 2NE      N/A     60  28  29 SW8       29.73S
ANTON 6SSW       N/A     52  30  44 SW12      29.69F
BROWNFIELD 2S    N/A     53  27  36 W9        29.70F
DENVR CTY 7WNW   N/A     48  26  42 W8        29.71F
GAIL 2ESE        N/A     58  31  36 SW10      29.68F
LAMESA 2SE       N/A     46  34  64 SE5       29.71F
LEVELLAND 4S     N/A     55  26  31 SW13      29.70F
LUBBOCK 3WNW     N/A     53  28  38 SW7       29.69F
MORTON 1ENE      N/A     53  28  38 SW10      29.70F
ODONNELL 1N      N/A     50  31  48 SW10      29.70F
PLAINS 3N        N/A     48  27  44 SW8       29.72F
RALLS 1SE        N/A     47  32  54 W9        29.69F
REESE CENTER     N/A     48  29  47 SW7       29.70F
SEAGRAVES 1SW    N/A     48  28  45 SW10      29.71F
SEMINOLE 2NNE    N/A     50  28  41 SW8       29.72F
SLATON 2NE       N/A     51  29  42 W9        29.69F
SNYDER 3E        N/A     54  35  48 S7        29.70F
SUNDOWN 8SW      N/A     48  28  45 W8        29.71F
TAHOKA 3NNE      N/A     49  29  46 SW10      29.70F
WOLFFORTH 6SSW   N/A     51  28  41 SW13      29.70F
$$

TXZ031-032-036>038-042>044-231100-
TEXAS TECH WEST TEXAS MESONET/ROLLING PLAINS

CITY           SKY/WX    TMP DP  RH WIND       PRES   REMARKS
ASPERMONT 3NE    N/A     60  34  37 SW5       29.64S
FLUVANNA 3WNW    N/A     57  30  35 SW7       29.69F
GRAHAM 5SSW      N/A     55  29  37 SW12      29.68F
GUTHRIE 10WSW    N/A     57  33  40 SW3       29.62F
HASKELL 1NW      N/A     57  38  48 S12       29.63F
JAYTON 1SSE      N/A     56  33  40 W7        29.65F
KNOX CITY 3NW    N/A     53  38  57 S9        29.62F
LK A HENRY 1NW   N/A     57  31  36 W10       29.66F
NORTHFIELD 1S    N/A     52  35  51 SW9       29.62F
ODELL 4ENE       N/A     55  42  60 W5        29.60F
PADUCAH 10SW     N/A     63  30  28 SW14      29.61F
POST 1NE         N/A     55  30  39 SW14      29.66F
RRING SPRGS 3N   N/A     57  32  39 W10       29.65F
SEYMOUR 3NW      N/A     53  45  74 S6        29.61F
SPUR 1W          N/A     52  32  45 W2        29.65F
WEINERT 2NNE     N/A     55  41  59 SW10      29.62F
WHITE RVR 6NE    N/A     60  28  29 W12       29.66F
$$

TXZ052-054-060>062-072-078-127-140-154-169-231100-
TEXAS TECH WEST TEXAS MESONET/PERMIAN BASIN/
CONCHO VALLEY/BIG COUNTRY/EDWARDS PLATEAU

CITY           SKY/WX    TMP DP  RH WIND       PRES   REMARKS
COYANOSA 2N      N/A     54  19  26 W2        29.73S
JUNCTION 1SSW    N/A     41  41  98 S1        29.73F
MERTZON 3NNE     N/A     49  37  61 S8        29.72F
SAN ANGELO 7NW   N/A     55  34  45 S5        29.70F
STRLNG CT 4WSW   N/A     65  34  30 S13       29.71F
ST LAWRNCE 5SW   N/A     53  34  48 S9        29.72F
SWEETWATR 11SW   N/A     56  35  45 SW5       29.71F
WALL 1E          N/A     52  38  58 SW9       29.71F
$$

TXZ055-058-074-075-080-082-231100-
TEXAS TECH WEST TEXAS MESONET/FAR WEST/SOUTHWEST MOUNTAINS/TRANS PECOS

CITY           SKY/WX    TMP DP  RH WIND       PRES   REMARKS
PRSMN GAP BBNP   N/A     52  30  43 SW1       29.78S
GUADLPE MTN NP   N/A     61  24  24 W12       29.87F
$$




USA.gov is the U.S. government's official web portal to all federal, state and local government web resources and services.